Location: Livorno
(43.5500°N, 10.3170°E)
Time: 15:54:14
(UTC+01:00)

Envisat - Pass Details

Date: 04 November 2020
Orbit: 764 x 766 km, 98.1° (Epoch: 30 November)

Event Time Altitude Azimuth Distance (km) Brightness Sun altitude
Rises 06:21:38 0° 13° (NNE) 3,241 6.2 -7.2°
Reaches altitude 10° 06:23:57 10° 13° (NNE) 2,311 5.5 -6.8°
Maximum altitude 06:29:03 89° 104° (ESE) 771 3.1 -5.9°
Drops below altitude 10° 06:34:07 10° 194° (SSW) 2,293 5.5 -5.0°
Sets 06:36:25 0° 195° (SSW) 3,215 6.3 -4.6°
